Year,Month,Day,Hour,Minute,Value (Times are PST for temperature in C)
2010,10,11,00,00,4.80
2010,10,11,00,01,4.80
2010,10,11,00,02,4.80
2010,10,11,00,03,4.80
2010,10,11,00,04,4.80
2010,10,11,00,05,4.80
2010,10,11,00,06,4.80
2010,10,11,00,07,4.80
2010,10,11,00,08,4.80
2010,10,11,00,09,4.80
2010,10,11,00,10,4.80
2010,10,11,00,11,4.80
2010,10,11,00,12,4.80
2010,10,11,00,13,4.80
2010,10,11,00,14,4.80
2010,10,11,00,15,4.80
2010,10,11,00,16,4.80
2010,10,11,00,17,4.80
2010,10,11,00,18,4.80
2010,10,11,00,19,4.90
2010,10,11,00,20,4.80
2010,10,11,00,21,4.90
2010,10,11,00,22,4.90
2010,10,11,00,23,4.90
2010,10,11,00,24,4.90
2010,10,11,00,25,4.90
2010,10,11,00,26,4.90
2010,10,11,00,27,4.90
2010,10,11,00,28,5.00
2010,10,11,00,29,5.00
2010,10,11,00,30,5.00
2010,10,11,00,31,5.10
2010,10,11,00,32,5.10
2010,10,11,00,33,5.10
2010,10,11,00,34,5.10
2010,10,11,00,35,5.10
2010,10,11,00,36,5.20
2010,10,11,00,37,5.20
2010,10,11,00,38,5.20
2010,10,11,00,39,5.20
2010,10,11,00,40,5.20
2010,10,11,00,41,5.20
2010,10,11,00,42,5.20
2010,10,11,00,43,5.20
2010,10,11,00,44,5.20
2010,10,11,00,45,5.20
2010,10,11,00,46,5.30
2010,10,11,00,47,5.30
2010,10,11,00,48,5.30
2010,10,11,00,49,5.30
2010,10,11,00,50,5.30
2010,10,11,00,51,5.30
2010,10,11,00,52,5.30
2010,10,11,00,53,5.30
2010,10,11,00,54,5.30
2010,10,11,00,55,5.30
2010,10,11,00,56,5.40
2010,10,11,00,57,5.40
2010,10,11,00,58,5.40
2010,10,11,00,59,5.40
2010,10,11,01,00,5.40
2010,10,11,01,01,5.40
2010,10,11,01,02,5.50
2010,10,11,01,03,5.50
2010,10,11,01,04,5.50
2010,10,11,01,05,5.60
2010,10,11,01,06,5.60
2010,10,11,01,07,5.60
2010,10,11,01,08,5.60
2010,10,11,01,09,5.60
2010,10,11,01,10,5.60
2010,10,11,01,11,5.60
2010,10,11,01,12,5.60
2010,10,11,01,13,5.60
2010,10,11,01,14,5.60
2010,10,11,01,15,5.60
2010,10,11,01,16,5.60
2010,10,11,01,17,5.60
2010,10,11,01,18,5.70
2010,10,11,01,19,5.70
2010,10,11,01,20,5.70
2010,10,11,01,21,5.70
2010,10,11,01,22,5.70
2010,10,11,01,23,5.70
2010,10,11,01,24,5.70
2010,10,11,01,25,5.70
2010,10,11,01,26,5.70
2010,10,11,01,27,5.70
2010,10,11,01,28,5.70
2010,10,11,01,29,5.70
2010,10,11,01,30,5.70
2010,10,11,01,31,5.70
2010,10,11,01,32,5.70
2010,10,11,01,33,5.70
2010,10,11,01,34,5.70
2010,10,11,01,35,5.70
2010,10,11,01,36,5.70
2010,10,11,01,37,5.70
2010,10,11,01,38,5.80
2010,10,11,01,39,5.80
2010,10,11,01,40,5.80
2010,10,11,01,41,5.80
2010,10,11,01,42,5.80
2010,10,11,01,43,5.80
2010,10,11,01,44,5.80
2010,10,11,01,45,5.80
2010,10,11,01,46,5.80
2010,10,11,01,47,5.80
2010,10,11,01,48,5.80
2010,10,11,01,49,5.80
2010,10,11,01,50,5.80
2010,10,11,01,51,5.80
2010,10,11,01,52,5.80
2010,10,11,01,53,5.80
2010,10,11,01,54,5.80
2010,10,11,01,55,5.80
2010,10,11,01,56,5.80
2010,10,11,01,57,5.90
2010,10,11,01,58,5.80
2010,10,11,01,59,5.90
2010,10,11,02,00,5.80
2010,10,11,02,01,5.90
2010,10,11,02,02,5.90
2010,10,11,02,03,5.90
2010,10,11,02,04,5.90
2010,10,11,02,05,5.90
2010,10,11,02,06,5.80
2010,10,11,02,07,5.90
2010,10,11,02,08,5.90
2010,10,11,02,09,5.90
2010,10,11,02,10,5.90
2010,10,11,02,11,5.90
2010,10,11,02,12,5.90
2010,10,11,02,13,5.90
2010,10,11,02,14,5.80
2010,10,11,02,15,5.80
2010,10,11,02,16,5.80
2010,10,11,02,17,5.80
2010,10,11,02,18,5.80
2010,10,11,02,19,5.80
2010,10,11,02,20,5.70
2010,10,11,02,21,5.70
2010,10,11,02,22,5.70
2010,10,11,02,23,5.70
2010,10,11,02,24,5.70
2010,10,11,02,25,5.60
2010,10,11,02,26,5.60
2010,10,11,02,27,5.60
2010,10,11,02,28,5.60
2010,10,11,02,29,5.60
2010,10,11,02,30,5.60
2010,10,11,02,31,5.50
2010,10,11,02,32,5.50
2010,10,11,02,33,5.50
2010,10,11,02,34,5.50
2010,10,11,02,35,5.40
2010,10,11,02,36,5.40
2010,10,11,02,37,5.40
2010,10,11,02,38,5.40
2010,10,11,02,39,5.40
2010,10,11,02,40,5.40
2010,10,11,02,41,5.40
2010,10,11,02,42,5.40
2010,10,11,02,43,5.40
2010,10,11,02,44,5.40
2010,10,11,02,45,5.40
2010,10,11,02,46,5.40
2010,10,11,02,47,5.40
2010,10,11,02,48,5.40
2010,10,11,02,49,5.30
2010,10,11,02,50,5.30
2010,10,11,02,51,5.30
2010,10,11,02,52,5.30
2010,10,11,02,53,5.30
2010,10,11,02,54,5.30
2010,10,11,02,55,5.30
2010,10,11,02,56,5.30
2010,10,11,02,57,5.30
2010,10,11,02,58,5.30
2010,10,11,02,59,5.30
2010,10,11,03,00,5.30
2010,10,11,03,01,5.30
2010,10,11,03,02,5.30
2010,10,11,03,03,5.30
2010,10,11,03,06,5.30
2010,10,11,03,07,5.30
2010,10,11,03,08,5.30
2010,10,11,03,09,5.30
2010,10,11,03,10,5.30
2010,10,11,03,11,5.30
2010,10,11,03,12,5.30
2010,10,11,03,13,5.30
2010,10,11,03,14,5.30
2010,10,11,03,15,5.30
2010,10,11,03,16,5.30
2010,10,11,03,17,5.30
2010,10,11,03,18,5.30
2010,10,11,03,19,5.30
2010,10,11,03,20,5.40
2010,10,11,03,21,5.40
2010,10,11,03,22,5.40
2010,10,11,03,23,5.40
2010,10,11,03,24,5.40
2010,10,11,03,25,5.40
2010,10,11,03,26,5.40
2010,10,11,03,27,5.40
2010,10,11,03,28,5.40
2010,10,11,03,29,5.40
2010,10,11,03,30,5.30
2010,10,11,03,31,5.30
2010,10,11,03,32,5.30
2010,10,11,03,33,5.30
2010,10,11,03,34,5.30
2010,10,11,03,35,5.30
2010,10,11,03,36,5.30
2010,10,11,03,37,5.30
2010,10,11,03,38,5.30
2010,10,11,03,39,5.30
2010,10,11,03,40,5.30
2010,10,11,03,41,5.30
2010,10,11,03,42,5.30
2010,10,11,03,43,5.30
2010,10,11,03,44,5.20
2010,10,11,03,45,5.20
2010,10,11,03,46,5.20
2010,10,11,03,47,5.20
2010,10,11,03,48,5.20
2010,10,11,03,49,5.20
2010,10,11,03,50,5.30
2010,10,11,03,51,5.30
2010,10,11,03,52,5.30
2010,10,11,03,53,5.30
2010,10,11,03,54,5.30
2010,10,11,03,55,5.30
2010,10,11,03,56,5.30
2010,10,11,03,57,5.30
2010,10,11,03,58,5.30
2010,10,11,03,59,5.30
2010,10,11,04,00,5.30
2010,10,11,04,01,5.30
2010,10,11,04,02,5.40
2010,10,11,04,03,5.40
2010,10,11,04,04,5.40
2010,10,11,04,05,5.40
2010,10,11,04,06,5.30
2010,10,11,04,07,5.30
2010,10,11,04,08,5.30
2010,10,11,04,09,5.20
2010,10,11,04,10,5.20
2010,10,11,04,11,5.10
2010,10,11,04,12,5.10
2010,10,11,04,13,5.10
2010,10,11,04,14,5.10
2010,10,11,04,15,5.10
2010,10,11,04,16,5.10
2010,10,11,04,17,5.10
2010,10,11,04,18,5.00
2010,10,11,04,19,5.00
2010,10,11,04,20,5.00
2010,10,11,04,21,5.00
2010,10,11,04,22,5.00
2010,10,11,04,23,5.00
2010,10,11,04,24,5.10
2010,10,11,04,25,5.10
2010,10,11,04,26,5.10
2010,10,11,04,27,5.10
2010,10,11,04,28,5.10
2010,10,11,04,29,5.10
2010,10,11,04,30,5.10
2010,10,11,04,31,5.00
2010,10,11,04,32,5.00
2010,10,11,04,33,5.00
2010,10,11,04,34,5.00
2010,10,11,04,35,5.00
2010,10,11,04,36,5.00
2010,10,11,04,37,5.00
2010,10,11,04,38,5.00
2010,10,11,04,39,5.00
2010,10,11,04,40,5.00
2010,10,11,04,41,5.00
2010,10,11,04,42,5.00
2010,10,11,04,43,5.10
2010,10,11,04,44,5.10
2010,10,11,04,45,5.00
2010,10,11,04,46,5.00
2010,10,11,04,47,4.90
2010,10,11,04,48,4.90
2010,10,11,04,49,4.80
2010,10,11,04,50,4.80
2010,10,11,04,51,4.70
2010,10,11,04,52,4.70
2010,10,11,04,53,4.60
2010,10,11,04,54,4.60
2010,10,11,04,55,4.50
2010,10,11,04,56,4.50
2010,10,11,04,57,4.50
2010,10,11,04,58,4.40
2010,10,11,04,59,4.40
2010,10,11,05,00,4.40
2010,10,11,05,01,4.40
2010,10,11,05,02,4.40
2010,10,11,05,03,4.40
2010,10,11,05,04,4.40
2010,10,11,05,05,4.30
2010,10,11,05,06,4.30
2010,10,11,05,07,4.30
2010,10,11,05,08,4.30
2010,10,11,05,09,4.30
2010,10,11,05,10,4.30
2010,10,11,05,11,4.30
2010,10,11,05,12,4.30
2010,10,11,05,13,4.20
2010,10,11,05,14,4.20
2010,10,11,05,15,4.20
2010,10,11,05,16,4.20
2010,10,11,05,17,4.20
2010,10,11,05,18,4.20
2010,10,11,05,19,4.20
2010,10,11,05,20,4.10
2010,10,11,05,21,4.10
2010,10,11,05,22,4.10
2010,10,11,05,23,4.00
2010,10,11,05,24,4.00
2010,10,11,05,25,4.00
2010,10,11,05,26,3.90
2010,10,11,05,27,3.90
2010,10,11,05,28,3.90
2010,10,11,05,29,3.90
2010,10,11,05,30,3.90
2010,10,11,05,31,3.90
2010,10,11,05,32,3.90
2010,10,11,05,33,3.90
2010,10,11,05,34,3.90
2010,10,11,05,35,3.90
2010,10,11,05,36,3.90
2010,10,11,05,37,3.90
2010,10,11,05,38,3.90
2010,10,11,05,39,3.90
2010,10,11,05,40,3.80
2010,10,11,05,41,3.80
2010,10,11,05,42,3.80
2010,10,11,05,43,3.80
2010,10,11,05,44,3.80
2010,10,11,05,45,3.70
2010,10,11,05,46,3.70
2010,10,11,05,47,3.70
2010,10,11,05,48,3.60
2010,10,11,05,49,3.60
2010,10,11,05,50,3.60
2010,10,11,05,51,3.50
2010,10,11,05,52,3.50
2010,10,11,05,53,3.50
2010,10,11,05,54,3.40
2010,10,11,05,55,3.40
2010,10,11,05,56,3.40
2010,10,11,05,57,3.40
2010,10,11,05,58,3.40
2010,10,11,05,59,3.40
2010,10,11,06,00,3.40
2010,10,11,06,01,3.40
2010,10,11,06,02,3.50
2010,10,11,06,03,3.40
2010,10,11,06,04,3.40
2010,10,11,06,05,3.40
2010,10,11,06,06,3.40
2010,10,11,06,07,3.40
2010,10,11,06,08,3.40
2010,10,11,06,09,3.40
2010,10,11,06,10,3.30
2010,10,11,06,11,3.30
2010,10,11,06,12,3.30
2010,10,11,06,13,3.30
2010,10,11,06,14,3.30
2010,10,11,06,15,3.20
2010,10,11,06,16,3.20
2010,10,11,06,17,3.20
2010,10,11,06,18,3.20
2010,10,11,06,19,3.20
2010,10,11,06,20,3.20
2010,10,11,06,21,3.20
2010,10,11,06,22,3.10
2010,10,11,06,23,3.10
2010,10,11,06,24,3.10
2010,10,11,06,25,3.10
2010,10,11,06,26,3.10
2010,10,11,06,27,3.10
2010,10,11,06,28,3.10
2010,10,11,06,29,3.10
2010,10,11,06,30,3.10
2010,10,11,06,31,3.10
2010,10,11,06,32,3.10
2010,10,11,06,33,3.10
2010,10,11,06,34,3.10
2010,10,11,06,35,3.10
2010,10,11,06,36,3.10
2010,10,11,06,37,3.10
2010,10,11,06,38,3.10
2010,10,11,06,39,3.20
2010,10,11,06,40,3.10
2010,10,11,06,41,3.10
2010,10,11,06,42,3.10
2010,10,11,06,43,3.10
2010,10,11,06,44,3.10
2010,10,11,06,45,3.10
2010,10,11,06,46,3.10
2010,10,11,06,47,3.10
2010,10,11,06,48,3.20
2010,10,11,06,49,3.20
2010,10,11,06,50,3.20
2010,10,11,06,51,3.20
2010,10,11,06,52,3.20
2010,10,11,06,53,3.20
2010,10,11,06,54,3.20
2010,10,11,06,55,3.20
2010,10,11,06,56,3.20
2010,10,11,06,57,3.10
2010,10,11,06,58,3.10
2010,10,11,06,59,3.10
2010,10,11,07,00,3.10
2010,10,11,07,01,3.10
2010,10,11,07,02,3.10
2010,10,11,07,03,3.10
2010,10,11,07,04,3.10
2010,10,11,07,05,3.10
2010,10,11,07,06,3.10
2010,10,11,07,07,3.10
2010,10,11,07,08,3.10
2010,10,11,07,09,3.10
2010,10,11,07,10,3.00
2010,10,11,07,11,3.00
2010,10,11,07,12,2.90
2010,10,11,07,13,2.90
2010,10,11,07,14,2.80
2010,10,11,07,15,2.80
2010,10,11,07,16,2.80
2010,10,11,07,17,2.70
2010,10,11,07,18,2.70
2010,10,11,07,19,2.70
2010,10,11,07,20,2.70
2010,10,11,07,21,2.70
2010,10,11,07,22,2.80
2010,10,11,07,23,2.80
2010,10,11,07,24,2.80
2010,10,11,07,25,2.80
2010,10,11,07,26,2.80
2010,10,11,07,27,2.80
2010,10,11,07,28,2.70
2010,10,11,07,29,2.70
2010,10,11,07,30,2.70
2010,10,11,07,31,2.60
2010,10,11,07,32,2.60
2010,10,11,07,33,2.60
2010,10,11,07,34,2.60
2010,10,11,07,35,2.60
2010,10,11,07,36,2.60
2010,10,11,07,37,2.70
2010,10,11,07,38,2.70
2010,10,11,07,39,2.70
2010,10,11,07,40,2.70
2010,10,11,07,41,2.70
2010,10,11,07,42,2.80
2010,10,11,07,43,2.80
2010,10,11,07,44,2.80
2010,10,11,07,45,2.80
2010,10,11,07,46,2.80
2010,10,11,07,47,2.80
2010,10,11,07,48,2.80
2010,10,11,07,49,2.80
2010,10,11,07,50,2.70
2010,10,11,07,51,2.70
2010,10,11,07,52,2.70
2010,10,11,07,53,2.70
2010,10,11,07,54,2.70
2010,10,11,07,55,2.70
2010,10,11,07,56,2.70
2010,10,11,07,57,2.80
2010,10,11,07,58,2.80
2010,10,11,07,59,2.80
2010,10,11,08,00,2.80
2010,10,11,08,01,2.80
2010,10,11,08,02,2.90
2010,10,11,08,03,2.90
2010,10,11,08,04,3.00
2010,10,11,08,05,3.00
2010,10,11,08,06,3.10
2010,10,11,08,07,3.20
2010,10,11,08,08,3.20
2010,10,11,08,09,3.20
2010,10,11,08,10,3.30
2010,10,11,08,11,3.30
2010,10,11,08,12,3.30
2010,10,11,08,13,3.30
2010,10,11,08,14,3.30
2010,10,11,08,15,3.40
2010,10,11,08,16,3.40
2010,10,11,08,17,3.40
2010,10,11,08,18,3.40
2010,10,11,08,19,3.40
2010,10,11,08,20,3.50
2010,10,11,08,21,3.50
2010,10,11,08,22,3.50
2010,10,11,08,23,3.60
2010,10,11,08,24,3.60
2010,10,11,08,25,3.70
2010,10,11,08,26,3.80
2010,10,11,08,27,3.80
2010,10,11,08,28,3.90
2010,10,11,08,29,4.00
2010,10,11,08,30,4.10
2010,10,11,08,31,4.20
2010,10,11,08,32,4.30
2010,10,11,08,33,4.40
2010,10,11,08,34,4.50
2010,10,11,08,35,4.60
2010,10,11,08,36,4.70
2010,10,11,08,37,4.80
2010,10,11,08,38,4.90
2010,10,11,08,39,4.90
2010,10,11,08,40,5.00
2010,10,11,08,41,5.10
2010,10,11,08,42,5.20
2010,10,11,08,43,5.30
2010,10,11,08,44,5.40
2010,10,11,08,45,5.40
2010,10,11,08,46,5.40
2010,10,11,08,47,5.40
2010,10,11,08,48,5.50
2010,10,11,08,49,5.50
2010,10,11,08,50,5.60
2010,10,11,08,51,5.70
2010,10,11,08,52,5.70
2010,10,11,08,53,5.80
2010,10,11,08,54,5.80
2010,10,11,08,55,5.90
2010,10,11,08,56,5.90
2010,10,11,08,57,6.00
2010,10,11,08,58,6.00
2010,10,11,08,59,6.00
2010,10,11,09,00,6.10
2010,10,11,09,01,6.10
2010,10,11,09,02,6.10
2010,10,11,09,03,6.10
2010,10,11,09,04,6.10
2010,10,11,09,05,6.20
2010,10,11,09,06,6.20
2010,10,11,09,07,6.30
2010,10,11,09,08,6.30
2010,10,11,09,09,6.40
2010,10,11,09,10,6.40
2010,10,11,09,11,6.50
2010,10,11,09,12,6.60
2010,10,11,09,13,6.70
2010,10,11,09,14,6.70
2010,10,11,09,15,6.80
2010,10,11,09,16,6.90
2010,10,11,09,17,7.00
2010,10,11,09,18,7.10
2010,10,11,09,19,7.20
2010,10,11,09,20,7.20
2010,10,11,09,21,7.30
2010,10,11,09,22,7.40
2010,10,11,09,23,7.50
2010,10,11,09,24,7.60
2010,10,11,09,25,7.70
2010,10,11,09,26,7.80
2010,10,11,09,27,7.80
2010,10,11,09,28,7.90
2010,10,11,09,29,8.00
2010,10,11,09,30,8.10
2010,10,11,09,31,8.20
2010,10,11,09,32,8.30
2010,10,11,09,33,8.40
2010,10,11,09,34,8.50
2010,10,11,09,35,8.50
2010,10,11,09,36,8.60
2010,10,11,09,37,8.70
2010,10,11,09,38,8.70
2010,10,11,09,39,8.80
2010,10,11,09,40,8.80
2010,10,11,09,41,8.80
2010,10,11,09,42,8.80
2010,10,11,09,43,8.90
2010,10,11,09,44,8.90
2010,10,11,09,45,8.90
2010,10,11,09,46,8.90
2010,10,11,09,47,8.90
2010,10,11,09,48,8.90
2010,10,11,09,49,8.90
2010,10,11,09,50,8.90
2010,10,11,09,51,8.90
2010,10,11,09,52,8.90
2010,10,11,09,53,8.90
2010,10,11,09,54,8.90
2010,10,11,09,55,8.90
2010,10,11,09,56,8.90
2010,10,11,09,57,8.90
2010,10,11,09,58,8.90
2010,10,11,09,59,8.90
2010,10,11,10,00,8.90
2010,10,11,10,01,8.90
2010,10,11,10,02,8.90
2010,10,11,10,03,8.90
2010,10,11,10,04,9.00
2010,10,11,10,05,9.00
2010,10,11,10,06,9.00
2010,10,11,10,07,8.90
2010,10,11,10,08,8.90
2010,10,11,10,09,8.90
2010,10,11,10,10,8.90
2010,10,11,10,11,8.90
2010,10,11,10,12,8.90
2010,10,11,10,13,9.00
2010,10,11,10,14,9.00
2010,10,11,10,15,9.00
2010,10,11,10,16,9.00
2010,10,11,10,17,9.00
2010,10,11,10,18,9.00
2010,10,11,10,19,9.00
2010,10,11,10,20,9.00
2010,10,11,10,21,9.00
2010,10,11,10,22,9.00
2010,10,11,10,23,9.00
2010,10,11,10,24,9.00
2010,10,11,10,25,9.10
2010,10,11,10,26,9.10
2010,10,11,10,27,9.10
2010,10,11,10,28,9.10
2010,10,11,10,29,9.10
2010,10,11,10,30,9.10
2010,10,11,10,31,9.10
2010,10,11,10,32,9.10
2010,10,11,10,33,9.10
2010,10,11,10,34,9.20
2010,10,11,10,35,9.20
2010,10,11,10,36,9.20
2010,10,11,10,37,9.20
2010,10,11,10,38,9.20
2010,10,11,10,39,9.20
2010,10,11,10,40,9.20
2010,10,11,10,41,9.20
2010,10,11,10,42,9.20
2010,10,11,10,43,9.20
2010,10,11,10,44,9.20
2010,10,11,10,45,9.20
2010,10,11,10,46,9.20
2010,10,11,10,47,9.20
2010,10,11,10,48,9.20
2010,10,11,10,49,9.20
2010,10,11,10,50,9.20
2010,10,11,10,51,9.20
2010,10,11,10,52,9.20
2010,10,11,10,53,9.20
2010,10,11,10,54,9.20
2010,10,11,10,55,9.20
2010,10,11,10,56,9.30
2010,10,11,10,57,9.30
2010,10,11,10,58,9.30
2010,10,11,10,59,9.30
2010,10,11,11,00,9.30
2010,10,11,11,01,9.30
2010,10,11,11,02,9.30
2010,10,11,11,03,9.30
2010,10,11,11,04,9.30
2010,10,11,11,05,9.40
2010,10,11,11,06,9.40
2010,10,11,11,07,9.40
2010,10,11,11,08,9.40
2010,10,11,11,09,9.50
2010,10,11,11,10,9.50
2010,10,11,11,11,9.60
2010,10,11,11,12,9.60
2010,10,11,11,13,9.60
2010,10,11,11,14,9.60
2010,10,11,11,15,9.70
2010,10,11,11,16,9.70
2010,10,11,11,17,9.70
2010,10,11,11,18,9.80
2010,10,11,11,19,9.80
2010,10,11,11,20,9.80
2010,10,11,11,21,9.80
2010,10,11,11,22,9.90
2010,10,11,11,23,9.90
2010,10,11,11,24,10.00
2010,10,11,11,25,10.00
2010,10,11,11,26,10.00
2010,10,11,11,27,10.10
2010,10,11,11,28,10.10
2010,10,11,11,29,10.20
2010,10,11,11,30,10.30
2010,10,11,11,31,10.40
2010,10,11,11,32,10.40
2010,10,11,11,33,10.50
2010,10,11,11,34,10.60
2010,10,11,11,35,10.60
2010,10,11,11,36,10.60
2010,10,11,11,37,10.60
2010,10,11,11,38,10.60
2010,10,11,11,39,10.70
2010,10,11,11,40,10.70
2010,10,11,11,41,10.70
2010,10,11,11,42,10.80
2010,10,11,11,43,10.80
2010,10,11,11,44,10.80
2010,10,11,11,45,10.80
2010,10,11,11,46,10.80
2010,10,11,11,47,10.80
2010,10,11,11,48,10.80
2010,10,11,11,49,10.90
2010,10,11,11,50,10.90
2010,10,11,11,51,10.90
2010,10,11,11,52,10.80
2010,10,11,11,53,10.80
2010,10,11,11,54,10.80
2010,10,11,11,55,10.90
2010,10,11,11,56,10.90
2010,10,11,11,57,10.90
2010,10,11,11,58,11.00
2010,10,11,11,59,11.00
2010,10,11,12,00,11.00
2010,10,11,12,01,11.10
2010,10,11,12,02,11.10
2010,10,11,12,03,11.20
2010,10,11,12,04,11.20
2010,10,11,12,05,11.20
2010,10,11,12,06,11.20
2010,10,11,12,07,11.20
2010,10,11,12,08,11.20
2010,10,11,12,09,11.20
2010,10,11,12,10,11.20
2010,10,11,12,11,11.20
2010,10,11,12,12,11.30
2010,10,11,12,13,11.30
2010,10,11,12,14,11.30
2010,10,11,12,15,11.30
2010,10,11,12,16,11.30
2010,10,11,12,17,11.30
2010,10,11,12,18,11.30
2010,10,11,12,19,11.40
2010,10,11,12,20,11.40
2010,10,11,12,21,11.40
2010,10,11,12,22,11.50
2010,10,11,12,23,11.60
2010,10,11,12,24,11.60
2010,10,11,12,25,11.60
2010,10,11,12,26,11.60
2010,10,11,12,27,11.70
2010,10,11,12,28,11.70
2010,10,11,12,29,11.70
2010,10,11,12,30,11.70
2010,10,11,12,31,11.70
2010,10,11,12,32,11.70
2010,10,11,12,33,11.70
2010,10,11,12,34,11.70
2010,10,11,12,35,11.70
2010,10,11,12,36,11.70
2010,10,11,12,37,11.70
2010,10,11,12,38,11.70
2010,10,11,12,39,11.70
2010,10,11,12,40,11.70
2010,10,11,12,41,11.70
2010,10,11,12,42,11.70
2010,10,11,12,43,11.70
2010,10,11,12,44,11.70
2010,10,11,12,45,11.80
2010,10,11,12,46,11.80
2010,10,11,12,47,11.80
2010,10,11,12,48,11.80
2010,10,11,12,49,11.80
2010,10,11,12,50,11.80
2010,10,11,12,51,11.80
2010,10,11,12,52,11.80
2010,10,11,12,53,11.80
2010,10,11,12,54,11.80
2010,10,11,12,55,11.80
2010,10,11,12,56,11.80
2010,10,11,12,57,11.90
2010,10,11,12,58,11.90
2010,10,11,12,59,11.90
2010,10,11,13,00,11.90
2010,10,11,13,01,12.00
2010,10,11,13,02,12.10
2010,10,11,13,03,12.10
2010,10,11,13,04,12.10
2010,10,11,13,05,12.10
2010,10,11,13,06,12.10
2010,10,11,13,07,12.20
2010,10,11,13,08,12.20
2010,10,11,13,09,12.20
2010,10,11,13,10,12.20
2010,10,11,13,11,12.20
2010,10,11,13,12,12.30
2010,10,11,13,13,12.30
2010,10,11,13,14,12.30
2010,10,11,13,15,12.30
2010,10,11,13,16,12.30
2010,10,11,13,17,12.30
2010,10,11,13,18,12.40
2010,10,11,13,19,12.40
2010,10,11,13,20,12.40
2010,10,11,13,21,12.30
2010,10,11,13,22,12.30
2010,10,11,13,23,12.30
2010,10,11,13,24,12.30
2010,10,11,13,25,12.30
2010,10,11,13,26,12.30
2010,10,11,13,27,12.30
2010,10,11,13,28,12.30
2010,10,11,13,29,12.30
2010,10,11,13,30,12.30
2010,10,11,13,31,12.30
2010,10,11,13,32,12.30
2010,10,11,13,33,12.30
2010,10,11,13,34,12.30
2010,10,11,13,35,12.30
2010,10,11,13,36,12.40
2010,10,11,13,37,12.40
2010,10,11,13,38,12.40
2010,10,11,13,39,12.40
2010,10,11,13,40,12.40
2010,10,11,13,41,12.40
2010,10,11,13,42,12.40
2010,10,11,13,43,12.40
2010,10,11,13,44,12.40
2010,10,11,13,45,12.50
2010,10,11,13,46,12.50
2010,10,11,13,47,12.50
2010,10,11,13,48,12.50
2010,10,11,13,49,12.50
2010,10,11,13,50,12.50
2010,10,11,13,51,12.50
2010,10,11,13,52,12.50
2010,10,11,13,53,12.50
2010,10,11,13,54,12.60
2010,10,11,13,55,12.60
2010,10,11,13,56,12.60
2010,10,11,13,57,12.70
2010,10,11,13,58,12.80
2010,10,11,13,59,12.80
2010,10,11,14,00,12.80
2010,10,11,14,01,12.80
2010,10,11,14,02,12.80
2010,10,11,14,03,12.80
2010,10,11,14,04,12.80
2010,10,11,14,05,12.80
2010,10,11,14,06,12.90
2010,10,11,14,07,12.80
2010,10,11,14,08,12.80
2010,10,11,14,09,12.80
2010,10,11,14,10,12.80
2010,10,11,14,11,12.90
2010,10,11,14,12,12.90
2010,10,11,14,13,12.90
2010,10,11,14,14,12.90
2010,10,11,14,15,12.90
2010,10,11,14,16,12.90
2010,10,11,14,17,12.90
2010,10,11,14,18,12.90
2010,10,11,14,19,12.90
2010,10,11,14,20,12.90
2010,10,11,14,21,12.80
2010,10,11,14,22,12.80
2010,10,11,14,23,12.80
2010,10,11,14,24,12.80
2010,10,11,14,25,12.80
2010,10,11,14,26,12.80
2010,10,11,14,27,12.80
2010,10,11,14,28,12.80
2010,10,11,14,29,12.80
2010,10,11,14,30,12.80
2010,10,11,14,31,12.80
2010,10,11,14,32,12.80
2010,10,11,14,33,12.80
2010,10,11,14,34,12.80
2010,10,11,14,35,12.80
2010,10,11,14,36,12.90
2010,10,11,14,37,13.00
2010,10,11,14,38,13.10
2010,10,11,14,39,13.10
2010,10,11,14,40,13.10
2010,10,11,14,41,13.10
2010,10,11,14,42,13.10
2010,10,11,14,43,13.10
2010,10,11,14,44,13.10
2010,10,11,14,45,13.10
2010,10,11,14,46,13.10
2010,10,11,14,47,13.10
2010,10,11,14,48,13.10
2010,10,11,14,49,13.10
2010,10,11,14,50,13.00
2010,10,11,14,51,13.00
2010,10,11,14,52,13.00
2010,10,11,14,53,13.10
2010,10,11,14,54,13.10
2010,10,11,14,55,13.10
2010,10,11,14,56,13.00
2010,10,11,14,57,13.00
2010,10,11,14,58,12.90
2010,10,11,14,59,12.90
2010,10,11,15,00,12.90
2010,10,11,15,01,12.90
2010,10,11,15,02,12.90
2010,10,11,15,03,12.90
2010,10,11,15,04,12.90
2010,10,11,15,05,12.90
2010,10,11,15,06,12.90
2010,10,11,15,07,12.90
2010,10,11,15,08,13.00
2010,10,11,15,09,13.00
2010,10,11,15,10,13.10
2010,10,11,15,11,13.20
2010,10,11,15,12,13.20
2010,10,11,15,13,13.20
2010,10,11,15,14,13.30
2010,10,11,15,15,13.30
2010,10,11,15,16,13.30
2010,10,11,15,17,13.30
2010,10,11,15,18,13.30
2010,10,11,15,19,13.30
2010,10,11,15,20,13.30
2010,10,11,15,21,13.30
2010,10,11,15,22,13.30
2010,10,11,15,23,13.30
2010,10,11,15,24,13.30
2010,10,11,15,25,13.20
2010,10,11,15,26,13.20
2010,10,11,15,27,13.30
2010,10,11,15,28,13.30
2010,10,11,15,29,13.30
2010,10,11,15,30,13.30
2010,10,11,15,31,13.30
2010,10,11,15,32,13.30
2010,10,11,15,33,13.30
2010,10,11,15,34,13.30
2010,10,11,15,35,13.30
2010,10,11,15,36,13.30
2010,10,11,15,37,13.30
2010,10,11,15,38,13.30
2010,10,11,15,39,13.20
2010,10,11,15,40,13.20
2010,10,11,15,41,13.20
2010,10,11,15,42,13.20
2010,10,11,15,43,13.20
2010,10,11,15,44,13.20
2010,10,11,15,45,13.20
2010,10,11,15,46,13.20
2010,10,11,15,47,13.20
2010,10,11,15,48,13.30
2010,10,11,15,49,13.30
2010,10,11,15,50,13.30
2010,10,11,15,51,13.40
2010,10,11,15,52,13.40
2010,10,11,15,53,13.50
2010,10,11,15,54,13.50
2010,10,11,15,55,13.50
2010,10,11,15,56,13.50
2010,10,11,15,57,13.50
2010,10,11,15,58,13.40
2010,10,11,15,59,13.40
2010,10,11,16,00,13.40
2010,10,11,16,01,13.30
2010,10,11,16,02,13.30
2010,10,11,16,03,13.30
2010,10,11,16,04,13.30
2010,10,11,16,05,13.30
2010,10,11,16,06,13.30
2010,10,11,16,07,13.30
2010,10,11,16,08,13.20
2010,10,11,16,09,13.20
2010,10,11,16,10,13.20
2010,10,11,16,11,13.20
2010,10,11,16,12,13.30
2010,10,11,16,13,13.30
2010,10,11,16,14,13.20
2010,10,11,16,15,13.20
2010,10,11,16,16,13.20
2010,10,11,16,17,13.30
2010,10,11,16,18,13.30
2010,10,11,16,19,13.30
2010,10,11,16,20,13.30
2010,10,11,16,21,13.30
2010,10,11,16,22,13.30
2010,10,11,16,23,13.30
2010,10,11,16,24,13.30
2010,10,11,16,25,13.30
2010,10,11,16,26,13.30
2010,10,11,16,27,13.20
2010,10,11,16,28,13.20
2010,10,11,16,29,13.20
2010,10,11,16,30,13.20
2010,10,11,16,31,13.10
2010,10,11,16,32,13.10
2010,10,11,16,33,13.10
2010,10,11,16,34,13.10
2010,10,11,16,35,13.10
2010,10,11,16,36,13.00
2010,10,11,16,37,13.00
2010,10,11,16,38,13.00
2010,10,11,16,39,13.00
2010,10,11,16,40,12.90
2010,10,11,16,41,12.90
2010,10,11,16,42,12.90
2010,10,11,16,43,12.90
2010,10,11,16,44,12.80
2010,10,11,16,45,12.80
2010,10,11,16,46,12.80
2010,10,11,16,47,12.80
2010,10,11,16,48,12.80
2010,10,11,16,49,12.80
2010,10,11,16,50,12.70
2010,10,11,16,51,12.70
2010,10,11,16,52,12.70
2010,10,11,16,53,12.60
2010,10,11,16,54,12.60
2010,10,11,16,55,12.50
2010,10,11,16,56,12.50
2010,10,11,16,57,12.40
2010,10,11,16,58,12.40
2010,10,11,16,59,12.40
2010,10,11,17,00,12.30
2010,10,11,17,01,12.30
2010,10,11,17,02,12.30
2010,10,11,17,03,12.30
2010,10,11,17,04,12.30
2010,10,11,17,05,12.20
2010,10,11,17,06,12.20
2010,10,11,17,07,12.20
2010,10,11,17,08,12.20
2010,10,11,17,09,12.10
2010,10,11,17,10,12.10
2010,10,11,17,11,12.10
2010,10,11,17,12,12.10
2010,10,11,17,13,12.00
2010,10,11,17,14,12.00
2010,10,11,17,15,12.00
2010,10,11,17,16,12.00
2010,10,11,17,17,12.00
2010,10,11,17,18,11.90
2010,10,11,17,19,11.90
2010,10,11,17,20,11.90
2010,10,11,17,21,11.90
2010,10,11,17,22,11.90
2010,10,11,17,23,11.90
2010,10,11,17,24,11.90
2010,10,11,17,25,11.90
2010,10,11,17,26,11.90
2010,10,11,17,27,11.80
2010,10,11,17,28,11.80
2010,10,11,17,29,11.80
2010,10,11,17,30,11.80
2010,10,11,17,31,11.80
2010,10,11,17,32,11.80
2010,10,11,17,33,11.70
2010,10,11,17,34,11.70
2010,10,11,17,35,11.70
2010,10,11,17,36,11.70
2010,10,11,17,37,11.70
2010,10,11,17,38,11.70
2010,10,11,17,39,11.70
2010,10,11,17,40,11.70
2010,10,11,17,41,11.70
2010,10,11,17,42,11.70
2010,10,11,17,43,11.70
2010,10,11,17,44,11.70
2010,10,11,17,45,11.70
2010,10,11,17,46,11.70
2010,10,11,17,47,11.70
2010,10,11,17,48,11.70
2010,10,11,17,49,11.70
2010,10,11,17,50,11.70
2010,10,11,17,51,11.70